Time,TemperatureF,DewpointF,PressureIn,WindDirection,WindDirectionDegrees,WindSpeedMPH,WindSpeedGustMPH,Humidity,HourlyPrecipIn,Conditions,Clouds,dailyrainin,SoftwareType,DateUTC
2013-05-10 00:01:00,53.8,53.8,30.27,WNW,293,0.0,0.0,100,-99.99,,,-99.99,WSDL version 420,2013-05-09 14:01:00,
2013-05-10 00:06:00,54.0,54.0,30.27,WNW,293,0.0,0.0,100,-99.99,,,-99.99,WSDL version 420,2013-05-09 14:06:00,
2013-05-10 00:11:00,54.1,54.1,30.27,WNW,293,0.0,0.0,100,-99.99,,,-99.99,WSDL version 420,2013-05-09 14:11:00,
2013-05-10 00:16:00,54.1,54.0,30.27,WNW,293,0.0,0.0,100,-99.99,,,-99.99,WSDL version 420,2013-05-09 14:16:00,
2013-05-10 00:21:00,53.9,53.9,30.27,WNW,293,0.0,0.0,100,-99.99,,,-99.99,WSDL version 420,2013-05-09 14:21:00,
2013-05-10 00:26:00,53.9,53.9,30.27,WNW,293,0.0,0.0,100,-99.99,,,-99.99,WSDL version 420,2013-05-09 14:26:00,
2013-05-10 00:31:00,54.1,54.1,30.27,WNW,293,0.0,0.0,100,-99.99,,,-99.99,WSDL version 420,2013-05-09 14:31:00,
2013-05-10 00:36:00,54.1,54.1,30.27,WNW,293,0.0,0.0,100,-99.99,,,-99.99,WSDL version 420,2013-05-09 14:36:00,
2013-05-10 00:41:00,54.0,54.0,30.24,WNW,293,0.0,0.0,100,-99.99,,,-99.99,WSDL version 420,2013-05-09 14:41:00,
2013-05-10 00:46:00,54.1,54.1,30.24,WNW,293,0.0,0.0,100,-99.99,,,-99.99,WSDL version 420,2013-05-09 14:46:00,
2013-05-10 00:51:00,54.1,54.1,30.24,WNW,293,0.0,0.0,100,-99.99,,,-99.99,WSDL version 420,2013-05-09 14:51:00,
2013-05-10 00:56:00,53.7,53.7,30.27,WNW,293,0.0,0.0,100,-99.99,,,-99.99,WSDL version 420,2013-05-09 14:56:00,
2013-05-10 01:01:00,53.5,53.5,30.27,WNW,293,0.0,0.0,100,-99.99,,,-99.99,WSDL version 420,2013-05-09 15:01:00,
2013-05-10 01:06:00,53.4,53.4,30.27,WNW,293,0.0,0.0,100,-99.99,,,-99.99,WSDL version 420,2013-05-09 15:06:00,
2013-05-10 01:11:00,53.2,53.1,30.27,WNW,293,0.0,0.0,100,-99.99,,,-99.99,WSDL version 420,2013-05-09 15:11:00,
2013-05-10 01:16:00,53.0,53.0,30.27,WNW,293,0.0,0.0,100,-99.99,,,-99.99,WSDL version 420,2013-05-09 15:16:00,
2013-05-10 01:21:00,52.6,52.6,30.27,WNW,293,0.0,0.0,100,-99.99,,,-99.99,WSDL version 420,2013-05-09 15:21:00,
2013-05-10 01:26:00,52.9,52.9,30.27,SW,225,0.0,1.6,100,-99.99,,,-99.99,WSDL version 420,2013-05-09 15:26:00,
2013-05-10 01:31:00,53.0,53.0,30.27,SW,225,0.0,1.6,100,-99.99,,,-99.99,WSDL version 420,2013-05-09 15:31:00,
2013-05-10 01:36:00,52.8,52.8,30.27,SW,225,0.0,0.0,100,-99.99,,,-99.99,WSDL version 420,2013-05-09 15:36:00,
2013-05-10 01:41:00,52.7,52.7,30.27,SW,225,0.0,0.0,100,-99.99,,,-99.99,WSDL version 420,2013-05-09 15:41:00,
2013-05-10 01:46:00,52.7,52.7,30.27,SW,225,0.0,0.0,100,-99.99,,,-99.99,WSDL version 420,2013-05-09 15:46:00,
2013-05-10 01:51:00,52.7,52.7,30.27,SSW,203,0.0,0.0,100,-99.99,,,-99.99,WSDL version 420,2013-05-09 15:51:00,
2013-05-10 01:56:00,53.1,53.1,30.27,East,90,0.0,0.0,100,-99.99,,,-99.99,WSDL version 420,2013-05-09 15:56:00,
2013-05-10 02:01:00,53.1,53.1,30.27,East,90,0.0,0.0,100,-99.99,,,-99.99,WSDL version 420,2013-05-09 16:01:00,
2013-05-10 02:06:00,52.9,52.9,30.27,East,90,0.0,0.0,100,-99.99,,,-99.99,WSDL version 420,2013-05-09 16:06:00,
2013-05-10 02:11:00,52.7,52.7,30.27,East,90,0.0,0.0,100,-99.99,,,-99.99,WSDL version 420,2013-05-09 16:11:00,
2013-05-10 02:16:00,52.5,52.5,30.27,East,90,0.0,0.0,100,-99.99,,,-99.99,WSDL version 420,2013-05-09 16:16:00,
2013-05-10 02:21:00,52.4,52.4,30.27,East,90,0.0,0.0,100,-99.99,,,-99.99,WSDL version 420,2013-05-09 16:21:00,
2013-05-10 02:26:00,52.4,52.4,30.27,SE,135,0.0,1.6,100,-99.99,,,-99.99,WSDL version 420,2013-05-09 16:26:00,
2013-05-10 02:31:00,52.7,52.7,30.27,SE,135,0.0,1.6,100,-99.99,,,-99.99,WSDL version 420,2013-05-09 16:31:00,
2013-05-10 02:36:00,52.7,52.7,30.27,SE,135,0.0,0.0,100,-99.99,,,-99.99,WSDL version 420,2013-05-09 16:36:00,
2013-05-10 02:41:00,53.0,53.0,30.27,SE,135,0.0,0.0,100,-99.99,,,-99.99,WSDL version 420,2013-05-09 16:41:00,
2013-05-10 02:46:00,52.9,52.9,30.27,SE,135,0.0,0.0,100,-99.99,,,-99.99,WSDL version 420,2013-05-09 16:46:00,
2013-05-10 02:51:00,52.4,52.4,30.27,SE,135,0.0,0.0,100,-99.99,,,-99.99,WSDL version 420,2013-05-09 16:51:00,
2013-05-10 02:56:00,52.3,52.2,30.24,SE,135,0.0,0.0,100,-99.99,,,-99.99,WSDL version 420,2013-05-09 16:56:00,
2013-05-10 03:01:00,51.9,51.9,30.24,SE,135,0.0,0.0,100,-99.99,,,-99.99,WSDL version 420,2013-05-09 17:01:00,
2013-05-10 03:06:00,51.8,51.8,30.24,SE,135,0.0,0.0,100,-99.99,,,-99.99,WSDL version 420,2013-05-09 17:06:00,
2013-05-10 03:11:00,51.7,51.7,30.24,SE,135,0.0,0.0,100,-99.99,,,-99.99,WSDL version 420,2013-05-09 17:11:00,
2013-05-10 03:16:00,51.4,51.4,30.27,SE,135,0.0,0.0,100,-99.99,,,-99.99,WSDL version 420,2013-05-09 17:16:00,
2013-05-10 03:21:00,51.5,51.5,30.27,SE,135,0.0,0.0,100,-99.99,,,-99.99,WSDL version 420,2013-05-09 17:21:00,
2013-05-10 03:26:00,51.4,51.4,30.24,SE,135,0.0,0.0,100,-99.99,,,-99.99,WSDL version 420,2013-05-09 17:26:00,
2013-05-10 03:31:00,51.1,51.1,30.24,SE,135,0.0,0.0,100,-99.99,,,-99.99,WSDL version 420,2013-05-09 17:31:00,
2013-05-10 03:36:00,50.9,50.9,30.24,SE,135,0.0,0.0,100,-99.99,,,-99.99,WSDL version 420,2013-05-09 17:36:00,
2013-05-10 03:41:00,50.8,50.8,30.24,SE,135,0.0,0.0,100,-99.99,,,-99.99,WSDL version 420,2013-05-09 17:41:00,
2013-05-10 03:46:00,50.6,50.6,30.24,SE,135,0.0,0.0,100,-99.99,,,-99.99,WSDL version 420,2013-05-09 17:46:00,
2013-05-10 03:51:00,50.5,50.5,30.24,SE,135,0.0,0.0,100,-99.99,,,-99.99,WSDL version 420,2013-05-09 17:51:00,
2013-05-10 03:56:00,50.7,50.7,30.24,SE,135,0.0,0.0,100,-99.99,,,-99.99,WSDL version 420,2013-05-09 17:56:00,
2013-05-10 04:01:00,50.7,50.7,30.24,SE,135,0.0,0.0,100,-99.99,,,-99.99,WSDL version 420,2013-05-09 18:01:00,
2013-05-10 04:06:00,50.6,50.6,30.24,SE,135,0.0,0.0,100,-99.99,,,-99.99,WSDL version 420,2013-05-09 18:06:00,
2013-05-10 04:11:00,50.3,50.3,30.27,SE,135,0.0,0.0,100,-99.99,,,-99.99,WSDL version 420,2013-05-09 18:11:00,
2013-05-10 04:16:00,50.2,50.2,30.27,SE,135,0.0,0.0,100,-99.99,,,-99.99,WSDL version 420,2013-05-09 18:16:00,
2013-05-10 04:21:00,50.2,50.2,30.27,SE,135,0.0,0.0,100,-99.99,,,-99.99,WSDL version 420,2013-05-09 18:21:00,
2013-05-10 04:26:00,50.0,50.0,30.27,SE,135,0.0,0.0,100,-99.99,,,-99.99,WSDL version 420,2013-05-09 18:26:00,
2013-05-10 04:31:00,50.0,50.0,30.27,SE,135,0.0,0.0,100,-99.99,,,-99.99,WSDL version 420,2013-05-09 18:31:00,
2013-05-10 04:36:00,50.0,50.0,30.27,SE,135,0.0,0.0,100,-99.99,,,-99.99,WSDL version 420,2013-05-09 18:36:00,
2013-05-10 04:41:00,49.8,49.8,30.27,SE,135,0.0,0.0,100,-99.99,,,-99.99,WSDL version 420,2013-05-09 18:41:00,
2013-05-10 04:51:00,49.5,49.5,30.27,SE,135,0.0,0.0,100,-99.99,,,-99.99,WSDL version 420,2013-05-09 18:51:00,
2013-05-10 04:56:00,49.4,49.4,30.27,SE,135,0.0,0.0,100,-99.99,,,-99.99,WSDL version 420,2013-05-09 18:56:00,
2013-05-10 05:01:00,49.5,49.5,30.27,SE,135,0.0,0.0,100,-99.99,,,-99.99,WSDL version 420,2013-05-09 19:01:00,
2013-05-10 05:06:00,49.4,49.4,30.27,SE,135,0.0,0.0,100,-99.99,,,-99.99,WSDL version 420,2013-05-09 19:06:00,
2013-05-10 05:11:00,49.2,49.2,30.27,SE,135,0.0,0.0,100,-99.99,,,-99.99,WSDL version 420,2013-05-09 19:11:00,
2013-05-10 05:16:00,49.0,49.0,30.27,SE,135,0.0,0.0,100,-99.99,,,-99.99,WSDL version 420,2013-05-09 19:16:00,
2013-05-10 05:21:00,48.9,48.9,30.27,SE,135,0.0,0.0,100,-99.99,,,-99.99,WSDL version 420,2013-05-09 19:21:00,
2013-05-10 05:26:00,48.9,48.9,30.27,SE,135,0.0,0.0,100,-99.99,,,-99.99,WSDL version 420,2013-05-09 19:26:00,
2013-05-10 05:31:00,48.8,48.8,30.27,SE,135,0.0,0.0,100,-99.99,,,-99.99,WSDL version 420,2013-05-09 19:31:00,
2013-05-10 05:36:00,48.6,48.6,30.27,SE,135,0.0,0.0,100,-99.99,,,-99.99,WSDL version 420,2013-05-09 19:36:00,
2013-05-10 05:41:00,48.6,48.6,30.27,SE,135,0.0,0.0,100,-99.99,,,-99.99,WSDL version 420,2013-05-09 19:41:00,
2013-05-10 05:46:00,48.7,48.6,30.27,SE,135,0.0,0.0,100,-99.99,,,-99.99,WSDL version 420,2013-05-09 19:46:00,
2013-05-10 05:51:00,48.6,48.6,30.27,SE,135,0.0,0.0,100,-99.99,,,-99.99,WSDL version 420,2013-05-09 19:51:00,
2013-05-10 05:56:00,48.4,48.4,30.30,SE,135,0.0,0.0,100,-99.99,,,-99.99,WSDL version 420,2013-05-09 19:56:00,
2013-05-10 06:01:00,48.5,48.5,30.30,SE,135,0.0,0.0,100,-99.99,,,-99.99,WSDL version 420,2013-05-09 20:01:00,
2013-05-10 06:06:00,48.5,48.5,30.30,SE,135,0.0,0.0,100,-99.99,,,-99.99,WSDL version 420,2013-05-09 20:06:00,
2013-05-10 06:11:00,48.4,48.4,30.27,SE,135,0.0,0.0,100,-99.99,,,-99.99,WSDL version 420,2013-05-09 20:11:00,
2013-05-10 06:16:00,48.4,48.4,30.27,SE,135,0.0,0.0,100,-99.99,,,-99.99,WSDL version 420,2013-05-09 20:16:00,
2013-05-10 06:21:00,48.1,48.1,30.27,SE,135,0.0,0.0,100,-99.99,,,-99.99,WSDL version 420,2013-05-09 20:21:00,
2013-05-10 06:26:00,48.4,48.4,30.27,SSE,158,0.0,0.0,100,-99.99,,,-99.99,WSDL version 420,2013-05-09 20:26:00,
2013-05-10 06:31:00,48.6,48.6,30.27,SW,225,0.0,0.0,100,-99.99,,,-99.99,WSDL version 420,2013-05-09 20:31:00,
2013-05-10 06:36:00,48.5,48.5,30.27,SW,225,0.0,0.0,100,-99.99,,,-99.99,WSDL version 420,2013-05-09 20:36:00,
2013-05-10 06:41:00,48.4,48.4,30.27,SW,225,0.0,0.0,100,-99.99,,,-99.99,WSDL version 420,2013-05-09 20:41:00,
2013-05-10 06:46:00,48.2,48.2,30.24,SW,225,0.0,0.0,100,-99.99,,,-99.99,WSDL version 420,2013-05-09 20:46:00,
2013-05-10 06:51:00,48.3,48.3,30.24,SW,225,0.0,0.0,100,-99.99,,,-99.99,WSDL version 420,2013-05-09 20:51:00,
2013-05-10 06:56:00,48.3,48.3,30.27,SW,225,0.0,0.0,100,-99.99,,,-99.99,WSDL version 420,2013-05-09 20:56:00,
2013-05-10 07:01:00,49.6,49.5,30.27,SW,225,0.0,0.0,100,-99.99,,,-99.99,WSDL version 420,2013-05-09 21:01:00,
2013-05-10 07:06:00,51.5,51.5,30.27,SW,225,0.0,0.0,100,-99.99,,,-99.99,WSDL version 420,2013-05-09 21:06:00,
2013-05-10 07:11:00,51.4,51.4,30.27,SW,225,0.0,0.0,100,-99.99,,,-99.99,WSDL version 420,2013-05-09 21:11:00,
2013-05-10 07:16:00,53.5,53.5,30.27,SW,225,0.0,0.0,100,-99.99,,,-99.99,WSDL version 420,2013-05-09 21:16:00,
2013-05-10 07:21:00,55.0,55.0,30.27,SW,225,0.0,0.0,100,-99.99,,,-99.99,WSDL version 420,2013-05-09 21:21:00,
2013-05-10 07:26:00,55.0,54.9,30.30,SW,225,0.0,0.0,100,-99.99,,,-99.99,WSDL version 420,2013-05-09 21:26:00,
2013-05-10 07:31:00,55.6,55.6,30.30,SW,225,0.0,0.0,100,-99.99,,,-99.99,WSDL version 420,2013-05-09 21:31:00,
2013-05-10 07:36:00,56.1,56.1,30.30,WSW,248,0.0,0.0,100,-99.99,,,-99.99,WSDL version 420,2013-05-09 21:36:00,
2013-05-10 07:41:00,56.8,56.8,30.27,WSW,248,0.0,0.0,100,-99.99,,,-99.99,WSDL version 420,2013-05-09 21:41:00,
2013-05-10 07:46:00,57.6,57.6,30.27,West,266,0.0,0.0,100,-99.99,,,-99.99,WSDL version 420,2013-05-09 21:46:00,
2013-05-10 07:51:00,57.0,57.0,30.27,NW,315,0.0,0.0,100,-99.99,,,-99.99,WSDL version 420,2013-05-09 21:51:00,
2013-05-10 07:56:00,57.4,57.4,30.27,NW,315,0.0,0.0,100,-99.99,,,-99.99,WSDL version 420,2013-05-09 21:56:00,
2013-05-10 08:01:00,57.7,57.6,30.30,NW,315,0.0,0.0,100,-99.99,,,-99.99,WSDL version 420,2013-05-09 22:01:00,
2013-05-10 08:06:00,57.7,57.7,30.30,NNE,23,0.0,0.0,100,-99.99,,,-99.99,WSDL version 420,2013-05-09 22:06:00,
2013-05-10 08:11:00,57.7,57.7,30.30,NNE,23,0.8,1.3,100,-99.99,,,-99.99,WSDL version 420,2013-05-09 22:11:00,
2013-05-10 08:16:00,57.9,57.9,30.30,NW,315,0.9,1.6,100,-99.99,,,-99.99,WSDL version 420,2013-05-09 22:16:00,
2013-05-10 08:21:00,58.8,58.8,30.30,NNW,338,0.0,1.6,100,-99.99,,,-99.99,WSDL version 420,2013-05-09 22:21:00,
2013-05-10 08:26:00,59.1,59.1,30.30,NNW,341,0.2,1.1,100,-99.99,,,-99.99,WSDL version 420,2013-05-09 22:26:00,
2013-05-10 08:31:00,59.6,59.6,30.30,NW,315,0.0,1.3,100,-99.99,,,-99.99,WSDL version 420,2013-05-09 22:31:00,
2013-05-10 08:36:00,60.1,60.1,30.30,North,350,0.8,1.3,100,-99.99,,,-99.99,WSDL version 420,2013-05-09 22:36:00,
2013-05-10 08:41:00,60.4,60.4,30.30,North,6,0.4,1.6,100,-99.99,,,-99.99,WSDL version 420,2013-05-09 22:41:00,
2013-05-10 08:46:00,60.8,60.8,30.30,NNW,338,0.0,1.6,100,-99.99,,,-99.99,WSDL version 420,2013-05-09 22:46:00,
2013-05-10 08:51:00,61.5,61.5,30.30,NNW,348,0.2,1.6,100,-99.99,,,-99.99,WSDL version 420,2013-05-09 22:51:00,
2013-05-10 08:56:00,61.8,61.8,30.30,North,11,1.0,1.6,100,-99.99,,,-99.99,WSDL version 420,2013-05-09 22:56:00,
2013-05-10 09:01:00,62.4,62.4,30.30,NNW,329,1.0,1.6,100,-99.99,,,-99.99,WSDL version 420,2013-05-09 23:01:00,
2013-05-10 09:06:00,62.9,62.9,30.30,NW,318,0.8,2.0,100,-99.99,,,-99.99,WSDL version 420,2013-05-09 23:06:00,
2013-05-10 09:11:00,63.6,63.6,30.30,NNW,334,0.6,2.0,100,-99.99,,,-99.99,WSDL version 420,2013-05-09 23:11:00,
2013-05-10 09:16:00,64.5,64.5,30.30,NW,318,0.8,2.5,100,-99.99,,,-99.99,WSDL version 420,2013-05-09 23:16:00,
2013-05-10 09:21:00,64.8,64.8,30.30,NNE,19,1.8,2.9,100,-99.99,,,-99.99,WSDL version 420,2013-05-09 23:21:00,
2013-05-10 09:26:00,65.2,64.8,30.30,NNW,332,1.5,2.9,98,-99.99,,,-99.99,WSDL version 420,2013-05-09 23:26:00,
2013-05-10 09:31:00,65.5,64.2,30.30,NNE,23,1.1,2.7,93,-99.99,,,-99.99,WSDL version 420,2013-05-09 23:31:00,
2013-05-10 09:36:00,65.8,63.9,30.30,NNE,27,2.1,2.9,93,-99.99,,,-99.99,WSDL version 420,2013-05-09 23:36:00,
2013-05-10 09:41:00,66.8,63.7,30.30,NW,315,1.6,2.9,89,-99.99,,,-99.99,WSDL version 420,2013-05-09 23:41:00,
2013-05-10 09:46:00,68.2,63.2,30.30,NNE,26,1.7,2.7,80,-99.99,,,-99.99,WSDL version 420,2013-05-09 23:46:00,
2013-05-10 09:51:00,68.0,60.9,30.30,NE,42,2.7,3.1,74,-99.99,,,-99.99,WSDL version 420,2013-05-09 23:51:00,
2013-05-10 09:56:00,68.9,61.5,30.30,North,350,0.3,3.1,78,-99.99,,,-99.99,WSDL version 420,2013-05-09 23:56:00,
2013-05-10 10:01:00,70.3,62.1,30.30,NE,48,1.1,2.5,75,-99.99,,,-99.99,WSDL version 420,2013-05-10 00:01:00,
2013-05-10 10:06:00,70.9,61.9,30.30,North,6,1.5,2.5,73,-99.99,,,-99.99,WSDL version 420,2013-05-10 00:06:00,
2013-05-10 10:11:00,71.8,62.0,30.30,NNW,341,2.0,2.7,70,-99.99,,,-99.99,WSDL version 420,2013-05-10 00:11:00,
2013-05-10 10:16:00,72.8,61.1,30.30,WNW,284,1.7,2.7,66,-99.99,,,-99.99,WSDL version 420,2013-05-10 00:16:00,
2013-05-10 10:21:00,73.2,59.9,30.30,NNE,19,2.1,3.1,62,-99.99,,,-99.99,WSDL version 420,2013-05-10 00:21:00,
2013-05-10 10:26:00,73.4,59.9,30.30,North,360,2.1,3.6,62,-99.99,,,-99.99,WSDL version 420,2013-05-10 00:26:00,
2013-05-10 10:31:00,74.2,59.6,30.30,WNW,296,2.0,3.6,59,-99.99,,,-99.99,WSDL version 420,2013-05-10 00:31:00,
2013-05-10 10:36:00,75.0,58.2,30.30,WSW,257,1.9,3.1,54,-99.99,,,-99.99,WSDL version 420,2013-05-10 00:36:00,
2013-05-10 10:41:00,75.4,56.4,30.30,West,270,3.0,6.3,50,-99.99,,,-99.99,WSDL version 420,2013-05-10 00:41:00,
2013-05-10 10:46:00,75.1,54.2,30.30,West,281,3.8,6.3,49,-99.99,,,-99.99,WSDL version 420,2013-05-10 00:46:00,
2013-05-10 10:51:00,75.3,54.3,30.30,ESE,104,2.4,6.3,49,-99.99,,,-99.99,WSDL version 420,2013-05-10 00:51:00,
2013-05-10 10:56:00,76.1,55.6,30.30,WNW,302,3.2,5.8,48,-99.99,,,-99.99,WSDL version 420,2013-05-10 00:56:00,
2013-05-10 11:01:00,76.1,54.4,30.30,NW,323,2.1,5.6,47,-99.99,,,-99.99,WSDL version 420,2013-05-10 01:01:00,
2013-05-10 11:06:00,76.8,54.9,30.30,WNW,285,2.9,5.6,45,-99.99,,,-99.99,WSDL version 420,2013-05-10 01:06:00,
2013-05-10 11:11:00,77.0,54.7,30.30,WNW,301,2.2,5.4,46,-99.99,,,-99.99,WSDL version 420,2013-05-10 01:11:00,
2013-05-10 11:16:00,77.0,54.3,30.30,NW,307,2.4,5.4,45,-99.99,,,-99.99,WSDL version 420,2013-05-10 01:16:00,
2013-05-10 11:21:00,77.4,54.1,30.30,WNW,302,2.4,6.0,43,-99.99,,,-99.99,WSDL version 420,2013-05-10 01:21:00,
2013-05-10 11:26:00,77.7,54.1,30.30,WNW,288,2.9,6.0,44,-99.99,,,-99.99,WSDL version 420,2013-05-10 01:26:00,
2013-05-10 11:31:00,78.2,54.5,30.30,WNW,301,1.6,3.8,44,-99.99,,,-99.99,WSDL version 420,2013-05-10 01:31:00,
2013-05-10 11:36:00,77.9,53.2,30.30,NW,321,3.5,4.7,42,-99.99,,,-99.99,WSDL version 420,2013-05-10 01:36:00,
2013-05-10 11:41:00,78.2,53.9,30.30,NW,318,2.5,4.7,43,-99.99,,,-99.99,WSDL version 420,2013-05-10 01:41:00,
2013-05-10 11:46:00,77.9,52.6,30.30,West,273,3.7,6.9,41,-99.99,,,-99.99,WSDL version 420,2013-05-10 01:46:00,
2013-05-10 11:51:00,77.9,53.0,30.30,North,4,2.2,6.9,42,-99.99,,,-99.99,WSDL version 420,2013-05-10 01:51:00,
2013-05-10 11:56:00,77.9,52.5,30.30,WNW,285,4.1,5.8,41,-99.99,,,-99.99,WSDL version 420,2013-05-10 01:56:00,
2013-05-10 12:01:00,78.0,52.7,30.30,NW,309,2.7,5.8,42,-99.99,,,-99.99,WSDL version 420,2013-05-10 02:01:00,
2013-05-10 12:06:00,78.8,53.6,30.30,SW,225,2.8,5.6,41,-99.99,,,-99.99,WSDL version 420,2013-05-10 02:06:00,
2013-05-10 12:11:00,78.9,53.0,30.30,WNW,298,3.9,5.8,41,-99.99,,,-99.99,WSDL version 420,2013-05-10 02:11:00,
2013-05-10 12:16:00,78.4,51.9,30.27,ESE,113,2.9,5.8,41,-99.99,,,-99.99,WSDL version 420,2013-05-10 02:16:00,
2013-05-10 12:21:00,79.1,52.9,30.27,West,276,2.7,4.0,40,-99.99,,,-99.99,WSDL version 420,2013-05-10 02:21:00,
2013-05-10 12:26:00,80.3,54.0,30.27,WNW,286,3.0,5.4,40,-99.99,,,-99.99,WSDL version 420,2013-05-10 02:26:00,
2013-05-10 12:31:00,80.3,53.1,30.27,NW,304,2.2,5.4,39,-99.99,,,-99.99,WSDL version 420,2013-05-10 02:31:00,
2013-05-10 12:36:00,80.8,53.1,30.27,East,84,2.6,4.3,38,-99.99,,,-99.99,WSDL version 420,2013-05-10 02:36:00,
2013-05-10 12:41:00,80.4,51.5,30.27,NW,323,2.8,4.9,37,-99.99,,,-99.99,WSDL version 420,2013-05-10 02:41:00,
2013-05-10 12:46:00,81.1,52.6,30.27,NW,325,2.0,4.9,38,-99.99,,,-99.99,WSDL version 420,2013-05-10 02:46:00,
2013-05-10 12:51:00,81.2,53.3,30.27,WNW,289,2.1,5.8,39,-99.99,,,-99.99,WSDL version 420,2013-05-10 02:51:00,
2013-05-10 12:56:00,81.6,53.9,30.27,North,8,1.8,5.8,37,-99.99,,,-99.99,WSDL version 420,2013-05-10 02:56:00,
2013-05-10 13:01:00,81.7,53.9,30.27,West,263,1.6,3.8,38,-99.99,,,-99.99,WSDL version 420,2013-05-10 03:01:00,
2013-05-10 13:06:00,81.7,51.6,30.27,ENE,71,2.9,6.5,35,-99.99,,,-99.99,WSDL version 420,2013-05-10 03:06:00,
2013-05-10 13:11:00,79.9,51.9,30.27,East,79,2.7,6.5,38,-99.99,,,-99.99,WSDL version 420,2013-05-10 03:11:00,
2013-05-10 13:16:00,79.3,52.0,30.27,NE,56,3.6,6.5,40,-99.99,,,-99.99,WSDL version 420,2013-05-10 03:16:00,
2013-05-10 13:21:00,80.1,54.3,30.27,NE,45,1.5,6.5,41,-99.99,,,-99.99,WSDL version 420,2013-05-10 03:21:00,
2013-05-10 13:26:00,80.3,54.5,30.27,ENE,60,2.5,3.8,41,-99.99,,,-99.99,WSDL version 420,2013-05-10 03:26:00,
2013-05-10 13:31:00,79.8,54.1,30.27,SW,225,2.2,5.8,41,-99.99,,,-99.99,WSDL version 420,2013-05-10 03:31:00,
2013-05-10 13:36:00,80.7,54.9,30.27,ENE,64,2.2,5.8,41,-99.99,,,-99.99,WSDL version 420,2013-05-10 03:36:00,
2013-05-10 13:41:00,81.2,54.8,30.27,East,90,2.0,3.6,40,-99.99,,,-99.99,WSDL version 420,2013-05-10 03:41:00,
2013-05-10 13:46:00,80.6,53.6,30.27,ESE,122,2.9,5.6,40,-99.99,,,-99.99,WSDL version 420,2013-05-10 03:46:00,
2013-05-10 13:51:00,80.2,53.2,30.27,ESE,120,2.7,5.6,39,-99.99,,,-99.99,WSDL version 420,2013-05-10 03:51:00,
2013-05-10 13:56:00,79.8,52.7,30.30,ESE,107,3.2,5.4,38,-99.99,,,-99.99,WSDL version 420,2013-05-10 03:56:00,
2013-05-10 14:01:00,79.5,52.6,30.30,NE,48,2.5,5.4,39,-99.99,,,-99.99,WSDL version 420,2013-05-10 04:01:00,
2013-05-10 14:06:00,79.9,53.1,30.30,ENE,73,0.7,4.3,40,-99.99,,,-99.99,WSDL version 420,2013-05-10 04:06:00,
2013-05-10 14:11:00,80.4,53.2,30.30,North,360,1.7,4.3,39,-99.99,,,-99.99,WSDL version 420,2013-05-10 04:11:00,
2013-05-10 14:16:00,80.4,52.9,30.27,North,351,2.2,4.0,39,-99.99,,,-99.99,WSDL version 420,2013-05-10 04:16:00,
2013-05-10 14:21:00,80.2,52.8,30.27,WNW,301,3.9,4.7,39,-99.99,,,-99.99,WSDL version 420,2013-05-10 04:21:00,
2013-05-10 14:26:00,79.5,53.3,30.27,East,79,3.1,4.7,41,-99.99,,,-99.99,WSDL version 420,2013-05-10 04:26:00,
2013-05-10 14:31:00,78.6,53.1,30.27,ENE,65,3.7,4.3,42,-99.99,,,-99.99,WSDL version 420,2013-05-10 04:31:00,
2013-05-10 14:36:00,78.5,52.9,30.27,WNW,284,1.6,4.3,41,-99.99,,,-99.99,WSDL version 420,2013-05-10 04:36:00,
2013-05-10 14:41:00,79.5,53.3,30.27,SW,223,1.9,3.6,41,-99.99,,,-99.99,WSDL version 420,2013-05-10 04:41:00,
2013-05-10 14:46:00,80.2,54.4,30.27,SSW,198,2.1,3.1,41,-99.99,,,-99.99,WSDL version 420,2013-05-10 04:46:00,
2013-05-10 14:51:00,80.0,54.0,30.27,West,280,1.1,4.0,41,-99.99,,,-99.99,WSDL version 420,2013-05-10 04:51:00,
2013-05-10 14:56:00,79.8,53.5,30.27,ENE,62,2.9,4.3,41,-99.99,,,-99.99,WSDL version 420,2013-05-10 04:56:00,
2013-05-10 15:01:00,78.4,52.8,30.27,NNW,347,3.4,4.5,41,-99.99,,,-99.99,WSDL version 420,2013-05-10 05:01:00,
2013-05-10 15:06:00,78.9,53.8,30.27,NE,53,1.8,4.5,43,-99.99,,,-99.99,WSDL version 420,2013-05-10 05:06:00,
2013-05-10 15:11:00,79.1,54.1,30.24,North,354,3.2,4.7,41,-99.99,,,-99.99,WSDL version 420,2013-05-10 05:11:00,
2013-05-10 15:16:00,78.4,54.1,30.24,WSW,254,2.6,5.4,43,-99.99,,,-99.99,WSDL version 420,2013-05-10 05:16:00,
2013-05-10 15:21:00,78.2,54.4,30.24,North,8,2.3,5.6,44,-99.99,,,-99.99,WSDL version 420,2013-05-10 05:21:00,
2013-05-10 15:26:00,78.0,54.4,30.24,SSW,203,1.9,5.6,44,-99.99,,,-99.99,WSDL version 420,2013-05-10 05:26:00,
2013-05-10 15:31:00,78.1,54.4,30.24,ENE,71,1.5,3.4,44,-99.99,,,-99.99,WSDL version 420,2013-05-10 05:31:00,
2013-05-10 15:36:00,77.5,53.3,30.24,ENE,68,3.5,5.4,42,-99.99,,,-99.99,WSDL version 420,2013-05-10 05:36:00,
2013-05-10 15:41:00,76.6,52.9,30.27,East,101,2.7,5.6,44,-99.99,,,-99.99,WSDL version 420,2013-05-10 05:41:00,
2013-05-10 15:46:00,75.8,52.3,30.27,East,95,3.2,5.8,44,-99.99,,,-99.99,WSDL version 420,2013-05-10 05:46:00,
2013-05-10 15:51:00,75.1,52.2,30.27,NE,35,2.2,5.8,45,-99.99,,,-99.99,WSDL version 420,2013-05-10 05:51:00,
2013-05-10 15:56:00,75.0,52.3,30.27,North,10,2.4,4.3,45,-99.99,,,-99.99,WSDL version 420,2013-05-10 05:56:00,
2013-05-10 16:01:00,75.2,52.0,30.27,ENE,64,2.5,5.8,45,-99.99,,,-99.99,WSDL version 420,2013-05-10 06:01:00,
2013-05-10 16:06:00,74.4,52.5,30.27,ENE,58,2.2,5.8,47,-99.99,,,-99.99,WSDL version 420,2013-05-10 06:06:00,
2013-05-10 16:11:00,74.3,52.9,30.27,ENE,60,1.5,4.5,48,-99.99,,,-99.99,WSDL version 420,2013-05-10 06:11:00,
2013-05-10 16:16:00,74.1,53.0,30.27,East,101,2.0,3.8,48,-99.99,,,-99.99,WSDL version 420,2013-05-10 06:16:00,
2013-05-10 16:21:00,73.9,53.0,30.27,WNW,286,1.8,3.8,48,-99.99,,,-99.99,WSDL version 420,2013-05-10 06:21:00,
2013-05-10 16:26:00,73.2,53.1,30.27,NNE,23,1.4,4.3,50,-99.99,,,-99.99,WSDL version 420,2013-05-10 06:26:00,
2013-05-10 16:31:00,72.6,52.9,30.27,North,357,1.3,4.3,50,-99.99,,,-99.99,WSDL version 420,2013-05-10 06:31:00,
2013-05-10 16:36:00,72.2,52.9,30.27,North,349,0.0,4.3,51,-99.99,,,-99.99,WSDL version 420,2013-05-10 06:36:00,
2013-05-10 16:41:00,71.2,52.6,30.27,WSW,241,0.4,3.1,52,-99.99,,,-99.99,WSDL version 420,2013-05-10 06:41:00,
2013-05-10 16:46:00,70.2,52.1,30.27,WNW,299,0.5,3.1,53,-99.99,,,-99.99,WSDL version 420,2013-05-10 06:46:00,
2013-05-10 16:51:00,69.3,52.8,30.27,NE,42,0.3,1.6,56,-99.99,,,-99.99,WSDL version 420,2013-05-10 06:51:00,
2013-05-10 16:56:00,68.5,52.8,30.27,South,188,0.0,1.6,57,-99.99,,,-99.99,WSDL version 420,2013-05-10 06:56:00,
2013-05-10 17:01:00,67.7,53.2,30.27,NW,315,0.0,0.9,61,-99.99,,,-99.99,WSDL version 420,2013-05-10 07:01:00,
2013-05-10 17:06:00,67.0,53.2,30.27,ESE,113,0.5,1.1,61,-99.99,,,-99.99,WSDL version 420,2013-05-10 07:06:00,
2013-05-10 17:11:00,66.3,53.3,30.27,SE,146,0.0,1.1,64,-99.99,,,-99.99,WSDL version 420,2013-05-10 07:11:00,
2013-05-10 17:16:00,65.7,53.5,30.27,SSW,199,0.0,0.0,65,-99.99,,,-99.99,WSDL version 420,2013-05-10 07:16:00,
2013-05-10 17:21:00,64.9,53.2,30.27,East,96,0.4,1.6,66,-99.99,,,-99.99,WSDL version 420,2013-05-10 07:21:00,
2013-05-10 17:26:00,64.3,53.2,30.27,ESE,113,0.0,1.6,68,-99.99,,,-99.99,WSDL version 420,2013-05-10 07:26:00,
2013-05-10 17:31:00,63.7,53.1,30.27,ESE,105,0.0,0.9,69,-99.99,,,-99.99,WSDL version 420,2013-05-10 07:31:00,
2013-05-10 17:36:00,63.3,53.2,30.27,East,98,0.0,0.0,70,-99.99,,,-99.99,WSDL version 420,2013-05-10 07:36:00,
2013-05-10 17:41:00,62.8,53.0,30.24,ESE,113,0.6,1.6,71,-99.99,,,-99.99,WSDL version 420,2013-05-10 07:41:00,
2013-05-10 17:46:00,62.3,53.0,30.24,ESE,106,0.0,1.6,72,-99.99,,,-99.99,WSDL version 420,2013-05-10 07:46:00,
2013-05-10 17:51:00,61.9,53.2,30.24,ESE,118,0.0,1.1,73,-99.99,,,-99.99,WSDL version 420,2013-05-10 07:51:00,
2013-05-10 17:56:00,61.7,53.3,30.27,ESE,113,0.0,0.0,75,-99.99,,,-99.99,WSDL version 420,2013-05-10 07:56:00,
2013-05-10 18:01:00,61.5,53.5,30.27,ESE,116,0.0,1.6,75,-99.99,,,-99.99,WSDL version 420,2013-05-10 08:01:00,
2013-05-10 18:06:00,61.2,53.7,30.27,ESE,122,0.0,1.6,77,-99.99,,,-99.99,WSDL version 420,2013-05-10 08:06:00,
2013-05-10 18:11:00,61.0,54.0,30.27,ESE,113,0.1,1.1,78,-99.99,,,-99.99,WSDL version 420,2013-05-10 08:11:00,
2013-05-10 18:16:00,60.9,54.5,30.27,SE,135,0.0,1.1,80,-99.99,,,-99.99,WSDL version 420,2013-05-10 08:16:00,
2013-05-10 18:21:00,60.7,54.9,30.27,SE,141,0.0,0.0,82,-99.99,,,-99.99,WSDL version 420,2013-05-10 08:21:00,
2013-05-10 18:26:00,60.6,55.4,30.27,SE,135,0.0,1.3,83,-99.99,,,-99.99,WSDL version 420,2013-05-10 08:26:00,
2013-05-10 18:31:00,60.4,55.6,30.30,ESE,113,0.1,1.3,84,-99.99,,,-99.99,WSDL version 420,2013-05-10 08:31:00,
2013-05-10 18:36:00,60.4,55.9,30.30,ESE,115,0.0,1.3,86,-99.99,,,-99.99,WSDL version 420,2013-05-10 08:36:00,
2013-05-10 18:41:00,60.1,56.3,30.30,ESE,116,0.0,0.0,88,-99.99,,,-99.99,WSDL version 420,2013-05-10 08:41:00,
2013-05-10 18:46:00,60.0,56.4,30.30,ESE,113,0.0,0.9,88,-99.99,,,-99.99,WSDL version 420,2013-05-10 08:46:00,
2013-05-10 18:51:00,59.9,56.4,30.30,ESE,113,0.0,0.9,89,-99.99,,,-99.99,WSDL version 420,2013-05-10 08:51:00,
2013-05-10 18:56:00,59.7,56.7,30.30,ESE,113,0.0,0.0,90,-99.99,,,-99.99,WSDL version 420,2013-05-10 08:56:00,
2013-05-10 19:01:00,59.6,56.7,30.30,SE,135,0.0,0.0,91,-99.99,,,-99.99,WSDL version 420,2013-05-10 09:01:00,
2013-05-10 19:06:00,59.5,56.9,30.30,ESE,122,0.0,0.0,91,-99.99,,,-99.99,WSDL version 420,2013-05-10 09:06:00,
2013-05-10 19:11:00,59.4,57.0,30.30,SE,132,0.3,1.3,91,-99.99,,,-99.99,WSDL version 420,2013-05-10 09:11:00,
2013-05-10 19:16:00,59.4,57.1,30.30,SE,143,1.0,1.6,92,-99.99,,,-99.99,WSDL version 420,2013-05-10 09:16:00,
2013-05-10 19:21:00,59.4,57.2,30.30,SE,124,1.2,2.0,93,-99.99,,,-99.99,WSDL version 420,2013-05-10 09:21:00,
2013-05-10 19:26:00,59.4,57.4,30.30,SE,135,1.3,2.0,93,-99.99,,,-99.99,WSDL version 420,2013-05-10 09:26:00,
2013-05-10 19:31:00,59.4,57.7,30.30,SE,135,0.0,1.6,94,-99.99,,,-99.99,WSDL version 420,2013-05-10 09:31:00,
2013-05-10 19:36:00,59.1,57.5,30.30,SE,135,0.0,1.1,94,-99.99,,,-99.99,WSDL version 420,2013-05-10 09:36:00,
2013-05-10 19:41:00,58.9,57.5,30.30,SSE,161,0.0,1.3,96,-99.99,,,-99.99,WSDL version 420,2013-05-10 09:41:00,
2013-05-10 19:46:00,58.8,57.6,30.30,SSE,155,1.0,2.0,96,-99.99,,,-99.99,WSDL version 420,2013-05-10 09:46:00,
2013-05-10 19:51:00,58.8,57.6,30.30,SE,132,0.0,2.0,96,-99.99,,,-99.99,WSDL version 420,2013-05-10 09:51:00,
2013-05-10 19:56:00,58.8,57.6,30.30,SE,135,0.0,1.1,96,-99.99,,,-99.99,WSDL version 420,2013-05-10 09:56:00,
2013-05-10 20:01:00,58.8,57.5,30.30,SSE,163,0.0,1.6,96,-99.99,,,-99.99,WSDL version 420,2013-05-10 10:01:00,
2013-05-10 20:06:00,-999.0,-99.9,30.30,South,169,0.6,1.6,-999,-99.99,,,-99.99,WSDL version 420,2013-05-10 10:06:00,
2013-05-10 20:11:00,58.7,57.7,30.30,ESE,113,0.0,1.6,97,-99.99,,,-99.99,WSDL version 420,2013-05-10 10:11:00,
2013-05-10 20:16:00,58.6,57.7,30.30,ESE,113,0.0,1.3,97,-99.99,,,-99.99,WSDL version 420,2013-05-10 10:16:00,
2013-05-10 20:21:00,58.5,57.6,30.30,ESE,104,0.0,1.3,98,-99.99,,,-99.99,WSDL version 420,2013-05-10 10:21:00,
2013-05-10 20:26:00,58.5,57.8,30.30,SE,135,0.0,0.0,98,-99.99,,,-99.99,WSDL version 420,2013-05-10 10:26:00,
2013-05-10 20:31:00,58.4,57.7,30.30,SE,138,0.5,1.3,98,-99.99,,,-99.99,WSDL version 420,2013-05-10 10:31:00,
2013-05-10 20:36:00,58.3,57.7,30.30,SE,135,0.0,1.3,98,-99.99,,,-99.99,WSDL version 420,2013-05-10 10:36:00,
2013-05-10 20:41:00,58.2,57.6,30.30,ESE,113,0.0,1.1,99,-99.99,,,-99.99,WSDL version 420,2013-05-10 10:41:00,
2013-05-10 20:46:00,58.1,57.8,30.30,ESE,113,0.0,0.0,99,-99.99,,,-99.99,WSDL version 420,2013-05-10 10:46:00,
2013-05-10 20:51:00,58.1,57.7,30.30,East,98,0.0,1.3,99,-99.99,,,-99.99,WSDL version 420,2013-05-10 10:51:00,
2013-05-10 20:56:00,58.1,57.8,30.30,SE,132,0.0,1.3,99,-99.99,,,-99.99,WSDL version 420,2013-05-10 10:56:00,
2013-05-10 21:01:00,58.0,57.7,30.30,ESE,113,0.0,0.0,99,-99.99,,,-99.99,WSDL version 420,2013-05-10 11:01:00,
2013-05-10 21:06:00,57.9,57.6,30.30,ESE,113,0.0,0.0,99,-99.99,,,-99.99,WSDL version 420,2013-05-10 11:06:00,
2013-05-10 21:11:00,57.8,57.5,30.30,West,270,0.0,0.0,99,-99.99,,,-99.99,WSDL version 420,2013-05-10 11:11:00,
2013-05-10 21:16:00,57.6,57.3,30.30,West,270,0.0,1.6,99,-99.99,,,-99.99,WSDL version 420,2013-05-10 11:16:00,
2013-05-10 21:21:00,57.3,57.2,30.30,West,270,0.0,1.6,100,-99.99,,,-99.99,WSDL version 420,2013-05-10 11:21:00,
2013-05-10 21:26:00,57.0,57.0,30.30,West,270,0.0,0.0,100,-99.99,,,-99.99,WSDL version 420,2013-05-10 11:26:00,
2013-05-10 21:31:00,56.8,56.8,30.30,NW,318,0.0,0.0,100,-99.99,,,-99.99,WSDL version 420,2013-05-10 11:31:00,
2013-05-10 21:36:00,56.9,56.9,30.30,WSW,248,0.0,0.0,100,-99.99,,,-99.99,WSDL version 420,2013-05-10 11:36:00,
2013-05-10 21:41:00,56.8,56.8,30.30,WSW,248,0.0,0.0,100,-99.99,,,-99.99,WSDL version 420,2013-05-10 11:41:00,
2013-05-10 21:46:00,56.7,56.7,30.30,WSW,248,0.0,0.0,100,-99.99,,,-99.99,WSDL version 420,2013-05-10 11:46:00,
2013-05-10 21:51:00,56.7,56.7,30.30,WSW,248,0.0,0.0,100,-99.99,,,-99.99,WSDL version 420,2013-05-10 11:51:00,
2013-05-10 21:56:00,56.7,56.7,30.30,WSW,248,0.0,0.0,100,-99.99,,,-99.99,WSDL version 420,2013-05-10 11:56:00,
2013-05-10 22:01:00,56.7,56.7,30.30,WSW,248,0.0,0.0,100,-99.99,,,-99.99,WSDL version 420,2013-05-10 12:01:00,
2013-05-10 22:06:00,56.8,56.7,30.30,WSW,248,0.0,0.0,100,-99.99,,,-99.99,WSDL version 420,2013-05-10 12:06:00,
2013-05-10 22:11:00,56.8,56.8,30.30,SE,128,0.0,0.0,100,-99.99,,,-99.99,WSDL version 420,2013-05-10 12:11:00,
2013-05-10 22:16:00,57.1,57.1,30.30,SE,129,0.0,0.0,100,-99.99,,,-99.99,WSDL version 420,2013-05-10 12:16:00,
2013-05-10 22:21:00,57.2,57.2,30.30,SE,145,0.0,0.0,100,-99.99,,,-99.99,WSDL version 420,2013-05-10 12:21:00,
2013-05-10 22:26:00,57.4,57.4,30.30,East,90,0.0,1.3,100,-99.99,,,-99.99,WSDL version 420,2013-05-10 12:26:00,
2013-05-10 22:31:00,57.2,57.2,30.30,ENE,68,0.0,1.3,100,-99.99,,,-99.99,WSDL version 420,2013-05-10 12:31:00,
2013-05-10 22:36:00,57.0,57.0,30.30,ENE,68,0.0,0.0,100,-99.99,,,-99.99,WSDL version 420,2013-05-10 12:36:00,
2013-05-10 22:41:00,57.1,57.1,30.30,ESE,113,0.0,0.0,100,-99.99,,,-99.99,WSDL version 420,2013-05-10 12:41:00,
2013-05-10 22:46:00,57.2,57.2,30.30,ESE,113,0.0,0.0,100,-99.99,,,-99.99,WSDL version 420,2013-05-10 12:46:00,
2013-05-10 22:51:00,56.9,56.9,30.30,ESE,113,0.0,0.0,100,-99.99,,,-99.99,WSDL version 420,2013-05-10 12:51:00,
2013-05-10 22:56:00,57.0,57.0,30.30,ESE,113,0.0,0.0,100,-99.99,,,-99.99,WSDL version 420,2013-05-10 12:56:00,
2013-05-10 23:01:00,56.8,56.8,30.30,WSW,253,0.0,0.0,100,-99.99,,,-99.99,WSDL version 420,2013-05-10 13:01:00,
2013-05-10 23:06:00,56.7,56.7,30.30,NNW,338,0.0,0.0,100,0.00,,,0.00,WSDL version 420,2013-05-10 13:06:00,
2013-05-10 23:11:00,56.8,56.8,30.30,NNW,338,0.0,0.0,100,0.00,,,0.00,WSDL version 420,2013-05-10 13:11:00,
2013-05-10 23:16:00,56.8,56.8,30.30,NNW,338,0.0,0.0,100,-99.99,,,-99.99,WSDL version 420,2013-05-10 13:16:00,
2013-05-10 23:21:00,56.9,56.9,30.30,NNW,338,0.0,0.0,100,-99.99,,,-99.99,WSDL version 420,2013-05-10 13:21:00,
2013-05-10 23:26:00,57.3,57.3,30.30,North,360,0.0,0.0,100,-99.99,,,-99.99,WSDL version 420,2013-05-10 13:26:00,
2013-05-10 23:31:00,57.4,57.4,30.30,WNW,293,0.0,0.0,100,-99.99,,,-99.99,WSDL version 420,2013-05-10 13:31:00,
2013-05-10 23:36:00,57.6,57.6,30.27,South,183,0.0,0.0,100,-99.99,,,-99.99,WSDL version 420,2013-05-10 13:36:00,
2013-05-10 23:41:00,57.9,57.9,30.27,East,93,0.0,0.0,100,-99.99,,,-99.99,WSDL version 420,2013-05-10 13:41:00,
2013-05-10 23:46:00,58.3,58.3,30.27,ESE,118,0.0,0.0,100,-99.99,,,-99.99,WSDL version 420,2013-05-10 13:46:00,
2013-05-10 23:51:00,58.5,58.5,30.27,ESE,113,0.0,0.0,100,-99.99,,,-99.99,WSDL version 420,2013-05-10 13:51:00,
2013-05-10 23:56:00,58.7,58.7,30.27,NW,326,0.3,1.3,100,-99.99,,,-99.99,WSDL version 420,2013-05-10 13:56:00,